Overview Statistics Trail Chart Weather Telemetry Raw packets
 

This is the latest recevied weather packets stored in our database for station/object DL2AMT-9. If no packets are shown the sender has not sent any weather packets the latest 10 day(s).

<< 1 2 3 4 5 >>
Time Temp. Humidity Pressure Rain* Wind** Luminosity Snow
1777891601 32.78° C 29% 968.6 hPa - - - -
1777891301 34.44° C 28% 968.6 hPa - - - -
1777891000 35° C 29% 968.7 hPa - - - -
1777886602 35.56° C 33% 969.2 hPa - - - -
1777886284 35.56° C 30% 969.3 hPa - - - -
1777885387 32.22° C 31% 969.3 hPa - - - -
1777885083 31.11° C 31% 969.3 hPa - - - -
1777884782 31.67° C 29% 969.8 hPa - - - -
1777879933 31.67° C 38% 969.2 hPa - - - -
1777879364 30° C 40% 969.1 hPa - - - -
1777879064 29.44° C 38% 969.1 hPa - - - -
1777878764 29.44° C 39% 969.1 hPa - - - -
1777878464 29.44° C 40% 969.1 hPa - - - -
1777878164 28.89° C 40% 969.1 hPa - - - -
1777877854 27.78° C 41% 969 hPa - - - -
1777877554 26.67° C 42% 968.9 hPa - - - -
1777839690 31.67° C 34% 967.6 hPa - - - -
1777839390 31.67° C 34% 967.6 hPa - - - -
1777839090 30.56° C 35% 967.5 hPa - - - -
1777836570 28.89° C 34% 967.3 hPa - - - -
1777836270 29.44° C 34% 967.4 hPa - - - -
1777835970 29.44° C 34% 967.3 hPa - - - -
1777835670 29.44° C 33% 967.3 hPa - - - -
1777835370 29.44° C 32% 967.3 hPa - - - -
1777835070 29.44° C 33% 967.3 hPa - - - -

* Rain since midnight (hover to see other rain measurements)
** Current wind speed in m/s (hover to see current wind gust speed)